User: anonymous   Login
Location: Unspecified
(0.0000°N, 0.0000°E)
Time: 19:25:54
(UTC+00:00)
Language:

DIAMOND BLUE - Orbit

View from above orbital plane
View from above orbital plane
View from above satellite
View from above satellite

Ground track
Ground track

The orbit data is extracted from the following two-line orbital elements,

1 42786U 17036X   19077.87157745 +.00001123 +00000-0 +52138-4 0  9992
2 42786 097.3632 137.4938 0011799 186.0996 174.0099 15.21996259096352
Epoch (UTC): 18 March 2019 20:55:04
Eccentricity: 0.0011799
inclination: 97.3632°
perigee height: 492 km
apogee height: 508 km
right ascension of ascending node: 137.4938°
argument of perigee: 186.0996°
revolutions per day: 15.21996259
mean anomaly at epoch: 174.0099°
orbit number at epoch: 9635

The dashed part of the orbit path shows where the satellite is in the earth's shadow,  

DLR